User: anonymous   Login
Location: Saint Peter Port
(49.4500°N, 2.5330°W)
Time: 03:18:06
(UTC+01:00)
Language:

Cosmos 2242 Rocket - Orbit

View from above orbital plane
View from above orbital plane
View from above satellite
View from above satellite

Ground track
Ground track

The orbit data is extracted from the following two-line orbital elements,

1 22627U 93024B   16243.51674310  .00000125  00000-0  14072-4 0  9996
2 22627  82.5243  10.0385 0023068 197.5905 215.7441 14.78039663259217
Epoch (UTC): 30 August 2016 12:24:06
Eccentricity: 0.0023068
inclination: 82.5243°
perigee height: 619 km
apogee height: 652 km
right ascension of ascending node: 10.0385°
argument of perigee: 197.5905°
revolutions per day: 14.78039663
mean anomaly at epoch: 215.7441°
orbit number at epoch: 25921

The dashed part of the orbit path shows where the satellite is in the earth's shadow,  

DLR